Year,Month,Day,Hour,Minute,Value (Times are PST for temperature in C)
2017,09,02,00,00,18.20
2017,09,02,00,01,18.20
2017,09,02,00,02,18.20
2017,09,02,00,03,18.20
2017,09,02,00,04,18.20
2017,09,02,00,05,18.20
2017,09,02,00,06,18.20
2017,09,02,00,07,18.20
2017,09,02,00,08,18.20
2017,09,02,00,09,18.20
2017,09,02,00,10,18.20
2017,09,02,00,11,18.10
2017,09,02,00,12,18.10
2017,09,02,00,13,18.10
2017,09,02,00,14,18.10
2017,09,02,00,15,18.10
2017,09,02,00,16,18.00
2017,09,02,00,17,18.00
2017,09,02,00,18,17.90
2017,09,02,00,19,17.90
2017,09,02,00,20,17.90
2017,09,02,00,21,17.90
2017,09,02,00,22,17.80
2017,09,02,00,23,17.80
2017,09,02,00,24,17.80
2017,09,02,00,25,17.80
2017,09,02,00,26,17.80
2017,09,02,00,27,17.80
2017,09,02,00,28,17.80
2017,09,02,00,29,17.70
2017,09,02,00,30,17.70
2017,09,02,00,31,17.70
2017,09,02,00,32,17.70
2017,09,02,00,33,17.70
2017,09,02,00,34,17.70
2017,09,02,00,35,17.70
2017,09,02,00,36,17.60
2017,09,02,00,37,17.60
2017,09,02,00,38,17.60
2017,09,02,00,39,17.60
2017,09,02,00,40,17.60
2017,09,02,00,41,17.60
2017,09,02,00,42,17.50
2017,09,02,00,43,17.50
2017,09,02,00,44,17.50
2017,09,02,00,45,17.50
2017,09,02,00,46,17.50
2017,09,02,00,47,17.40
2017,09,02,00,48,17.40
2017,09,02,00,49,17.40
2017,09,02,00,50,17.40
2017,09,02,00,51,17.40
2017,09,02,00,52,17.40
2017,09,02,00,53,17.40
2017,09,02,00,54,17.40
2017,09,02,00,55,17.30
2017,09,02,00,56,17.30
2017,09,02,00,57,17.30
2017,09,02,00,58,17.30
2017,09,02,00,59,17.30
2017,09,02,01,00,17.30
2017,09,02,01,01,17.20
2017,09,02,01,02,17.20
2017,09,02,01,03,17.20
2017,09,02,01,04,17.20
2017,09,02,01,05,17.20
2017,09,02,01,06,17.10
2017,09,02,01,07,17.10
2017,09,02,01,08,17.10
2017,09,02,01,09,17.10
2017,09,02,01,10,17.10
2017,09,02,01,11,17.10
2017,09,02,01,12,17.10
2017,09,02,01,13,17.10
2017,09,02,01,14,17.10
2017,09,02,01,15,17.00
2017,09,02,01,16,17.00
2017,09,02,01,17,17.00
2017,09,02,01,18,17.00
2017,09,02,01,19,17.00
2017,09,02,01,20,17.00
2017,09,02,01,21,16.90
2017,09,02,01,22,16.90
2017,09,02,01,23,16.90
2017,09,02,01,24,16.90
2017,09,02,01,25,16.90
2017,09,02,01,26,16.90
2017,09,02,01,27,16.90
2017,09,02,01,28,16.80
2017,09,02,01,29,16.80
2017,09,02,01,30,16.80
2017,09,02,01,31,16.80
2017,09,02,01,32,16.80
2017,09,02,01,33,16.80
2017,09,02,01,34,16.70
2017,09,02,01,35,16.70
2017,09,02,01,36,16.70
2017,09,02,01,37,16.70
2017,09,02,01,38,16.70
2017,09,02,01,39,16.60
2017,09,02,01,40,16.60
2017,09,02,01,41,16.60
2017,09,02,01,42,16.60
2017,09,02,01,43,16.60
2017,09,02,01,44,16.60
2017,09,02,01,45,16.60
2017,09,02,01,46,16.60
2017,09,02,01,47,16.60
2017,09,02,01,48,16.60
2017,09,02,01,49,16.60
2017,09,02,01,50,16.60
2017,09,02,01,51,16.60
2017,09,02,01,52,16.60
2017,09,02,01,53,16.50
2017,09,02,01,54,16.50
2017,09,02,01,55,16.50
2017,09,02,01,56,16.50
2017,09,02,01,57,16.50
2017,09,02,01,58,16.50
2017,09,02,01,59,16.40
2017,09,02,02,00,16.40
2017,09,02,02,01,16.40
2017,09,02,02,02,16.40
2017,09,02,02,03,16.40
2017,09,02,02,04,16.40
2017,09,02,02,05,16.40
2017,09,02,02,06,16.40
2017,09,02,02,07,16.40
2017,09,02,02,08,16.40
2017,09,02,02,09,16.40
2017,09,02,02,10,16.30
2017,09,02,02,11,16.30
2017,09,02,02,12,16.30
2017,09,02,02,13,16.30
2017,09,02,02,14,16.30
2017,09,02,02,15,16.30
2017,09,02,02,16,16.30
2017,09,02,02,17,16.30
2017,09,02,02,18,16.30
2017,09,02,02,19,16.30
2017,09,02,02,20,16.20
2017,09,02,02,21,16.20
2017,09,02,02,22,16.20
2017,09,02,02,23,16.20
2017,09,02,02,24,16.20
2017,09,02,02,25,16.20
2017,09,02,02,26,16.10
2017,09,02,02,27,16.10
2017,09,02,02,28,16.10
2017,09,02,02,29,16.10
2017,09,02,02,30,16.10
2017,09,02,02,31,16.10
2017,09,02,02,32,16.10
2017,09,02,02,33,16.10
2017,09,02,02,34,16.10
2017,09,02,02,35,16.00
2017,09,02,02,36,16.00
2017,09,02,02,37,16.00
2017,09,02,02,38,16.00
2017,09,02,02,39,15.90
2017,09,02,02,40,15.90
2017,09,02,02,41,15.90
2017,09,02,02,42,15.90
2017,09,02,02,43,15.90
2017,09,02,02,44,15.80
2017,09,02,02,45,15.80
2017,09,02,02,46,15.80
2017,09,02,02,47,15.80
2017,09,02,02,48,15.80
2017,09,02,02,49,15.80
2017,09,02,02,50,15.80
2017,09,02,02,51,15.80
2017,09,02,02,52,15.80
2017,09,02,02,53,15.80
2017,09,02,02,54,15.80
2017,09,02,02,55,15.80
2017,09,02,02,56,15.70
2017,09,02,02,57,15.60
2017,09,02,02,58,15.60
2017,09,02,02,59,15.60
2017,09,02,03,00,15.60
2017,09,02,03,01,15.60
2017,09,02,03,02,15.60
2017,09,02,03,03,15.60
2017,09,02,03,04,15.60
2017,09,02,03,05,15.60
2017,09,02,03,06,15.60
2017,09,02,03,07,15.60
2017,09,02,03,08,15.60
2017,09,02,03,09,15.60
2017,09,02,03,10,15.60
2017,09,02,03,11,15.60
2017,09,02,03,12,15.60
2017,09,02,03,13,15.50
2017,09,02,03,14,15.50
2017,09,02,03,15,15.50
2017,09,02,03,16,15.50
2017,09,02,03,17,15.50
2017,09,02,03,18,15.50
2017,09,02,03,19,15.40
2017,09,02,03,20,15.40
2017,09,02,03,21,15.40
2017,09,02,03,22,15.40
2017,09,02,03,23,15.40
2017,09,02,03,24,15.40
2017,09,02,03,25,15.40
2017,09,02,03,26,15.40
2017,09,02,03,27,15.40
2017,09,02,03,28,15.40
2017,09,02,03,29,15.40
2017,09,02,03,30,15.40
2017,09,02,03,31,15.40
2017,09,02,03,32,15.40
2017,09,02,03,33,15.40
2017,09,02,03,34,15.40
2017,09,02,03,35,15.40
2017,09,02,03,36,15.40
2017,09,02,03,37,15.40
2017,09,02,03,38,15.40
2017,09,02,03,39,15.30
2017,09,02,03,40,15.30
2017,09,02,03,41,15.30
2017,09,02,03,42,15.30
2017,09,02,03,43,15.30
2017,09,02,03,44,15.30
2017,09,02,03,45,15.30
2017,09,02,03,46,15.30
2017,09,02,03,47,15.20
2017,09,02,03,48,15.20
2017,09,02,03,49,15.20
2017,09,02,03,50,15.20
2017,09,02,03,51,15.20
2017,09,02,03,52,15.20
2017,09,02,03,53,15.10
2017,09,02,03,54,15.10
2017,09,02,03,55,15.10
2017,09,02,03,56,15.10
2017,09,02,03,57,15.10
2017,09,02,03,58,15.10
2017,09,02,03,59,15.10
2017,09,02,04,00,15.10
2017,09,02,04,01,15.10
2017,09,02,04,02,15.10
2017,09,02,04,03,15.10
2017,09,02,04,04,15.10
2017,09,02,04,05,15.10
2017,09,02,04,06,15.10
2017,09,02,04,07,15.10
2017,09,02,04,08,15.00
2017,09,02,04,09,15.00
2017,09,02,04,10,15.00
2017,09,02,04,11,15.00
2017,09,02,04,12,15.00
2017,09,02,04,13,15.00
2017,09,02,04,14,15.00
2017,09,02,04,15,15.00
2017,09,02,04,16,15.00
2017,09,02,04,17,15.00
2017,09,02,04,18,14.90
2017,09,02,04,19,14.90
2017,09,02,04,20,14.90
2017,09,02,04,21,14.90
2017,09,02,04,22,14.90
2017,09,02,04,23,14.90
2017,09,02,04,24,14.90
2017,09,02,04,25,14.90
2017,09,02,04,26,14.90
2017,09,02,04,27,14.90
2017,09,02,04,28,14.90
2017,09,02,04,29,14.90
2017,09,02,04,30,14.90
2017,09,02,04,31,14.80
2017,09,02,04,32,14.80
2017,09,02,04,33,14.80
2017,09,02,04,34,14.80
2017,09,02,04,35,14.80
2017,09,02,04,36,14.80
2017,09,02,04,37,14.80
2017,09,02,04,38,14.80
2017,09,02,04,39,14.80
2017,09,02,04,40,14.80
2017,09,02,04,41,14.80
2017,09,02,04,42,14.80
2017,09,02,04,43,14.80
2017,09,02,04,44,14.80
2017,09,02,04,45,14.80
2017,09,02,04,46,14.80
2017,09,02,04,47,14.80
2017,09,02,04,48,14.80
2017,09,02,04,49,14.80
2017,09,02,04,50,14.80
2017,09,02,04,51,14.80
2017,09,02,04,52,14.80
2017,09,02,04,53,14.80
2017,09,02,04,54,14.80
2017,09,02,04,55,14.80
2017,09,02,04,56,14.80
2017,09,02,04,57,14.70
2017,09,02,04,58,14.70
2017,09,02,04,59,14.70
2017,09,02,05,00,14.70
2017,09,02,05,01,14.70
2017,09,02,05,02,14.70
2017,09,02,05,03,14.70
2017,09,02,05,04,14.70
2017,09,02,05,05,14.70
2017,09,02,05,06,14.60
2017,09,02,05,07,14.60
2017,09,02,05,08,14.60
2017,09,02,05,09,14.60
2017,09,02,05,10,14.60
2017,09,02,05,11,14.60
2017,09,02,05,12,14.60
2017,09,02,05,13,14.50
2017,09,02,05,14,14.50
2017,09,02,05,15,14.50
2017,09,02,05,16,14.50
2017,09,02,05,17,14.40
2017,09,02,05,18,14.40
2017,09,02,05,19,14.40
2017,09,02,05,20,14.40
2017,09,02,05,21,14.40
2017,09,02,05,22,14.40
2017,09,02,05,23,14.30
2017,09,02,05,24,14.30
2017,09,02,05,25,14.30
2017,09,02,05,26,14.30
2017,09,02,05,27,14.30
2017,09,02,05,28,14.30
2017,09,02,05,29,14.30
2017,09,02,05,30,14.30
2017,09,02,05,31,14.30
2017,09,02,05,32,14.30
2017,09,02,05,33,14.20
2017,09,02,05,34,14.20
2017,09,02,05,35,14.20
2017,09,02,05,36,14.20
2017,09,02,05,37,14.20
2017,09,02,05,38,14.20
2017,09,02,05,39,14.10
2017,09,02,05,40,14.10
2017,09,02,05,41,14.10
2017,09,02,05,42,14.10
2017,09,02,05,43,14.10
2017,09,02,05,44,14.10
2017,09,02,05,45,14.10
2017,09,02,05,46,14.10
2017,09,02,05,47,14.10
2017,09,02,05,48,14.10
2017,09,02,05,49,14.10
2017,09,02,05,50,14.10
2017,09,02,05,51,14.10
2017,09,02,05,52,14.10
2017,09,02,05,53,14.00
2017,09,02,05,54,14.00
2017,09,02,05,55,14.10
2017,09,02,05,56,14.10
2017,09,02,05,57,14.10
2017,09,02,05,58,14.10
2017,09,02,05,59,14.10
2017,09,02,06,00,14.10
2017,09,02,06,01,14.00
2017,09,02,06,02,14.00
2017,09,02,06,03,14.00
2017,09,02,06,04,14.00
2017,09,02,06,05,14.00
2017,09,02,06,06,14.00
2017,09,02,06,07,14.00
2017,09,02,06,08,14.00
2017,09,02,06,09,14.00
2017,09,02,06,10,14.00
2017,09,02,06,11,14.00
2017,09,02,06,12,14.00
2017,09,02,06,13,14.00
2017,09,02,06,14,14.00
2017,09,02,06,15,14.00
2017,09,02,06,16,13.90
2017,09,02,06,17,13.90
2017,09,02,06,18,13.90
2017,09,02,06,19,13.90
2017,09,02,06,20,13.80
2017,09,02,06,21,13.80
2017,09,02,06,22,13.80
2017,09,02,06,23,13.80
2017,09,02,06,24,13.80
2017,09,02,06,25,13.80
2017,09,02,06,26,13.80
2017,09,02,06,27,13.80
2017,09,02,06,28,13.80
2017,09,02,06,29,13.80
2017,09,02,06,30,13.80
2017,09,02,06,31,13.80
2017,09,02,06,32,13.80
2017,09,02,06,33,13.80
2017,09,02,06,34,13.80
2017,09,02,06,35,13.80
2017,09,02,06,36,13.80
2017,09,02,06,37,13.80
2017,09,02,06,38,13.80
2017,09,02,06,39,13.80
2017,09,02,06,40,13.80
2017,09,02,06,41,13.80
2017,09,02,06,42,13.80
2017,09,02,06,43,13.80
2017,09,02,06,44,13.80
2017,09,02,06,45,13.80
2017,09,02,06,46,13.80
2017,09,02,06,47,13.80
2017,09,02,06,48,13.80
2017,09,02,06,49,13.80
2017,09,02,06,50,13.80
2017,09,02,06,51,13.80
2017,09,02,06,52,13.80
2017,09,02,06,53,13.70
2017,09,02,06,54,13.70
2017,09,02,06,55,13.70
2017,09,02,06,56,13.80
2017,09,02,06,57,13.80
2017,09,02,06,58,13.80
2017,09,02,06,59,13.80
2017,09,02,07,00,13.70
2017,09,02,07,01,13.70
2017,09,02,07,02,13.70
2017,09,02,07,03,13.70
2017,09,02,07,04,13.70
2017,09,02,07,05,13.70
2017,09,02,07,06,13.70
2017,09,02,07,07,13.70
2017,09,02,07,08,13.70
2017,09,02,07,09,13.70
2017,09,02,07,10,13.70
2017,09,02,07,11,13.70
2017,09,02,07,12,13.70
2017,09,02,07,13,13.70
2017,09,02,07,14,13.70
2017,09,02,07,15,13.70
2017,09,02,07,16,13.70
2017,09,02,07,17,13.60
2017,09,02,07,18,13.60
2017,09,02,07,19,13.60
2017,09,02,07,20,13.60
2017,09,02,07,21,13.60
2017,09,02,07,22,13.60
2017,09,02,07,23,13.70
2017,09,02,07,24,13.70
2017,09,02,07,25,13.70
2017,09,02,07,26,13.70
2017,09,02,07,27,13.70
2017,09,02,07,28,13.70
2017,09,02,07,29,13.70
2017,09,02,07,30,13.80
2017,09,02,07,31,13.80
2017,09,02,07,32,13.80
2017,09,02,07,33,13.90
2017,09,02,07,34,13.90
2017,09,02,07,35,14.00
2017,09,02,07,36,14.00
2017,09,02,07,37,14.10
2017,09,02,07,38,14.20
2017,09,02,07,39,14.20
2017,09,02,07,40,14.30
2017,09,02,07,41,14.40
2017,09,02,07,42,14.40
2017,09,02,07,43,14.50
2017,09,02,07,44,14.50
2017,09,02,07,45,14.60
2017,09,02,07,46,14.70
2017,09,02,07,47,14.80
2017,09,02,07,48,14.80
2017,09,02,07,49,14.90
2017,09,02,07,50,15.00
2017,09,02,07,51,15.00
2017,09,02,07,52,15.10
2017,09,02,07,53,15.10
2017,09,02,07,54,15.20
2017,09,02,07,55,15.20
2017,09,02,07,56,15.30
2017,09,02,07,57,15.40
2017,09,02,07,58,15.50
2017,09,02,07,59,15.60
2017,09,02,08,00,15.60
2017,09,02,08,01,15.70
2017,09,02,08,02,15.80
2017,09,02,08,03,15.80
2017,09,02,08,04,15.90
2017,09,02,08,05,16.00
2017,09,02,08,06,16.00
2017,09,02,08,07,16.10
2017,09,02,08,08,16.20
2017,09,02,08,09,16.20
2017,09,02,08,10,16.30
2017,09,02,08,11,16.30
2017,09,02,08,12,16.40
2017,09,02,08,13,16.50
2017,09,02,08,14,16.60
2017,09,02,08,15,16.70
2017,09,02,08,16,16.70
2017,09,02,08,17,16.80
2017,09,02,08,18,16.90
2017,09,02,08,19,17.00
2017,09,02,08,20,17.00
2017,09,02,08,21,17.10
2017,09,02,08,22,17.20
2017,09,02,08,23,17.30
2017,09,02,08,24,17.30
2017,09,02,08,25,17.30
2017,09,02,08,26,17.40
2017,09,02,08,27,17.50
2017,09,02,08,28,17.60
2017,09,02,08,29,17.70
2017,09,02,08,30,17.70
2017,09,02,08,31,17.80
2017,09,02,08,32,17.80
2017,09,02,08,33,17.80
2017,09,02,08,34,17.80
2017,09,02,08,35,17.80
2017,09,02,08,36,17.80
2017,09,02,08,37,17.80
2017,09,02,08,38,17.80
2017,09,02,08,39,17.80
2017,09,02,08,40,17.80
2017,09,02,08,41,17.80
2017,09,02,08,42,17.80
2017,09,02,08,43,17.80
2017,09,02,08,44,17.80
2017,09,02,08,45,17.80
2017,09,02,08,46,17.80
2017,09,02,08,47,17.80
2017,09,02,08,48,17.80
2017,09,02,08,49,17.80
2017,09,02,08,50,17.80
2017,09,02,08,51,17.80
2017,09,02,08,52,17.90
2017,09,02,08,53,17.90
2017,09,02,08,54,17.90
2017,09,02,08,55,17.90
2017,09,02,08,56,18.00
2017,09,02,08,57,18.00
2017,09,02,08,58,18.10
2017,09,02,08,59,18.20
2017,09,02,09,00,18.30
2017,09,02,09,01,18.40
2017,09,02,09,02,18.40
2017,09,02,09,03,18.50
2017,09,02,09,04,18.60
2017,09,02,09,05,18.70
2017,09,02,09,06,18.90
2017,09,02,09,07,19.10
2017,09,02,09,08,19.20
2017,09,02,09,09,19.40
2017,09,02,09,10,19.50
2017,09,02,09,11,19.70
2017,09,02,09,12,19.80
2017,09,02,09,13,19.90
2017,09,02,09,14,20.00
2017,09,02,09,15,19.90
2017,09,02,09,16,19.90
2017,09,02,09,17,19.90
2017,09,02,09,18,19.90
2017,09,02,09,19,19.90
2017,09,02,09,20,19.90
2017,09,02,09,21,19.90
2017,09,02,09,22,19.90
2017,09,02,09,23,19.90
2017,09,02,09,24,20.00
2017,09,02,09,25,20.10
2017,09,02,09,26,20.20
2017,09,02,09,27,20.30
2017,09,02,09,28,20.40
2017,09,02,09,29,20.40
2017,09,02,09,30,20.50
2017,09,02,09,31,20.50
2017,09,02,09,32,20.60
2017,09,02,09,33,20.60
2017,09,02,09,34,20.70
2017,09,02,09,35,20.70
2017,09,02,09,36,20.70
2017,09,02,09,37,20.80
2017,09,02,09,38,20.80
2017,09,02,09,39,20.90
2017,09,02,09,40,20.90
2017,09,02,09,41,21.00
2017,09,02,09,42,21.10
2017,09,02,09,43,21.20
2017,09,02,09,44,21.20
2017,09,02,09,45,21.20
2017,09,02,09,46,21.20
2017,09,02,09,47,21.20
2017,09,02,09,48,21.20
2017,09,02,09,49,21.20
2017,09,02,09,50,21.20
2017,09,02,09,51,21.20
2017,09,02,09,52,21.10
2017,09,02,09,53,21.10
2017,09,02,09,54,21.10
2017,09,02,09,55,21.20
2017,09,02,09,56,21.30
2017,09,02,09,57,21.40
2017,09,02,09,58,21.60
2017,09,02,09,59,21.70
2017,09,02,10,00,21.80
2017,09,02,10,01,21.90
2017,09,02,10,02,22.00
2017,09,02,10,03,22.10
2017,09,02,10,04,22.20
2017,09,02,10,05,22.30
2017,09,02,10,06,22.40
2017,09,02,10,07,22.50
2017,09,02,10,08,22.50
2017,09,02,10,09,22.60
2017,09,02,10,10,22.60
2017,09,02,10,11,22.60
2017,09,02,10,12,22.60
2017,09,02,10,13,22.60
2017,09,02,10,14,22.60
2017,09,02,10,15,22.70
2017,09,02,10,16,22.70
2017,09,02,10,17,22.70
2017,09,02,10,18,22.70
2017,09,02,10,19,22.80
2017,09,02,10,20,22.90
2017,09,02,10,21,23.00
2017,09,02,10,22,23.10
2017,09,02,10,23,23.20
2017,09,02,10,24,23.20
2017,09,02,10,25,23.20
2017,09,02,10,26,23.20
2017,09,02,10,27,23.20
2017,09,02,10,28,23.20
2017,09,02,10,29,23.20
2017,09,02,10,30,23.20
2017,09,02,10,31,23.20
2017,09,02,10,32,23.20
2017,09,02,10,33,23.20
2017,09,02,10,34,23.20
2017,09,02,10,35,23.20
2017,09,02,10,36,23.20
2017,09,02,10,37,23.20
2017,09,02,10,38,23.30
2017,09,02,10,39,23.40
2017,09,02,10,40,23.50
2017,09,02,10,41,23.70
2017,09,02,10,42,23.80
2017,09,02,10,43,23.90
2017,09,02,10,44,24.10
2017,09,02,10,45,24.20
2017,09,02,10,46,24.30
2017,09,02,10,47,24.30
2017,09,02,10,48,24.40
2017,09,02,10,49,24.40
2017,09,02,10,50,24.50
2017,09,02,10,51,24.60
2017,09,02,10,52,24.60
2017,09,02,10,53,24.50
2017,09,02,10,54,24.50
2017,09,02,10,55,24.50
2017,09,02,10,56,24.60
2017,09,02,10,57,24.70
2017,09,02,10,58,24.70
2017,09,02,10,59,24.80
2017,09,02,11,00,24.80
2017,09,02,11,01,24.80
2017,09,02,11,02,24.80
2017,09,02,11,03,24.90
2017,09,02,11,04,24.90
2017,09,02,11,05,25.00
2017,09,02,11,06,25.00
2017,09,02,11,07,25.10
2017,09,02,11,08,25.10
2017,09,02,11,09,25.10
2017,09,02,11,10,25.10
2017,09,02,11,11,25.10
2017,09,02,11,12,25.10
2017,09,02,11,13,25.10
2017,09,02,11,14,25.10
2017,09,02,11,15,25.10
2017,09,02,11,16,25.20
2017,09,02,11,17,25.20
2017,09,02,11,18,25.20
2017,09,02,11,19,25.30
2017,09,02,11,20,25.30
2017,09,02,11,21,25.30
2017,09,02,11,22,25.30
2017,09,02,11,23,25.30
2017,09,02,11,24,25.30
2017,09,02,11,25,25.20
2017,09,02,11,26,25.10
2017,09,02,11,27,25.10
2017,09,02,11,28,25.00
2017,09,02,11,29,25.00
2017,09,02,11,30,25.10
2017,09,02,11,31,25.10
2017,09,02,11,32,25.10
2017,09,02,11,33,25.10
2017,09,02,11,34,25.20
2017,09,02,11,35,25.30
2017,09,02,11,36,25.40
2017,09,02,11,37,25.50
2017,09,02,11,38,25.60
2017,09,02,11,39,25.70
2017,09,02,11,40,25.70
2017,09,02,11,41,25.80
2017,09,02,11,42,25.80
2017,09,02,11,43,25.80
2017,09,02,11,44,25.90
2017,09,02,11,45,25.90
2017,09,02,11,46,26.00
2017,09,02,11,47,26.10
2017,09,02,11,48,26.20
2017,09,02,11,49,26.30
2017,09,02,11,50,26.30
2017,09,02,11,51,26.40
2017,09,02,11,52,26.40
2017,09,02,11,53,26.50
2017,09,02,11,54,26.60
2017,09,02,11,55,26.60
2017,09,02,11,56,26.70
2017,09,02,11,57,26.80
2017,09,02,11,58,26.90
2017,09,02,11,59,27.10
2017,09,02,12,00,27.10
2017,09,02,12,01,27.20
2017,09,02,12,02,27.30
2017,09,02,12,03,27.30
2017,09,02,12,04,27.30
2017,09,02,12,05,27.30
2017,09,02,12,06,27.40
2017,09,02,12,07,27.40
2017,09,02,12,08,27.50
2017,09,02,12,09,27.60
2017,09,02,12,10,27.70
2017,09,02,12,11,27.70
2017,09,02,12,12,27.70
2017,09,02,12,13,27.70
2017,09,02,12,14,27.70
2017,09,02,12,15,27.70
2017,09,02,12,16,27.70
2017,09,02,12,17,27.70
2017,09,02,12,18,27.80
2017,09,02,12,19,27.90
2017,09,02,12,20,27.90
2017,09,02,12,21,28.00
2017,09,02,12,22,28.10
2017,09,02,12,23,28.10
2017,09,02,12,24,28.20
2017,09,02,12,25,28.30
2017,09,02,12,26,28.30
2017,09,02,12,27,28.40
2017,09,02,12,28,28.50
2017,09,02,12,29,28.50
2017,09,02,12,30,28.50
2017,09,02,12,31,28.60
2017,09,02,12,32,28.60
2017,09,02,12,33,28.50
2017,09,02,12,34,28.60
2017,09,02,12,35,28.60
2017,09,02,12,36,28.60
2017,09,02,12,37,28.60
2017,09,02,12,38,28.70
2017,09,02,12,39,28.70
2017,09,02,12,40,28.80
2017,09,02,12,41,28.80
2017,09,02,12,42,28.80
2017,09,02,12,43,28.90
2017,09,02,12,44,29.00
2017,09,02,12,45,29.00
2017,09,02,12,46,29.10
2017,09,02,12,47,29.10
2017,09,02,12,48,29.20
2017,09,02,12,49,29.20
2017,09,02,12,50,29.20
2017,09,02,12,51,29.10
2017,09,02,12,52,29.10
2017,09,02,12,53,29.10
2017,09,02,12,54,29.10
2017,09,02,12,55,29.20
2017,09,02,12,56,29.20
2017,09,02,12,57,29.30
2017,09,02,12,58,29.30
2017,09,02,12,59,29.20
2017,09,02,13,00,29.10
2017,09,02,13,01,29.20
2017,09,02,13,02,29.20
2017,09,02,13,03,29.30
2017,09,02,13,04,29.30
2017,09,02,13,05,29.40
2017,09,02,13,06,29.50
2017,09,02,13,07,29.60
2017,09,02,13,08,29.50
2017,09,02,13,09,29.40
2017,09,02,13,10,29.40
2017,09,02,13,11,29.40
2017,09,02,13,12,29.40
2017,09,02,13,13,29.30
2017,09,02,13,14,29.30
2017,09,02,13,15,29.30
2017,09,02,13,16,29.20
2017,09,02,13,17,29.20
2017,09,02,13,18,29.30
2017,09,02,13,19,29.30
2017,09,02,13,20,29.40
2017,09,02,13,21,29.50
2017,09,02,13,22,29.60
2017,09,02,13,23,29.60
2017,09,02,13,24,29.60
2017,09,02,13,25,29.60
2017,09,02,13,26,29.70
2017,09,02,13,27,29.70
2017,09,02,13,28,29.80
2017,09,02,13,29,29.80
2017,09,02,13,30,29.90
2017,09,02,13,31,30.00
2017,09,02,13,32,30.10
2017,09,02,13,33,30.20
2017,09,02,13,34,30.20
2017,09,02,13,35,30.20
2017,09,02,13,36,30.20
2017,09,02,13,37,30.20
2017,09,02,13,38,30.20
2017,09,02,13,39,30.30
2017,09,02,13,40,30.30
2017,09,02,13,41,30.30
2017,09,02,13,42,30.40
2017,09,02,13,43,30.40
2017,09,02,13,44,30.40
2017,09,02,13,45,30.40
2017,09,02,13,46,30.40
2017,09,02,13,47,30.40
2017,09,02,13,48,30.30
2017,09,02,13,49,30.30
2017,09,02,13,50,30.40
2017,09,02,13,51,30.50
2017,09,02,13,52,30.60
2017,09,02,13,53,30.60
2017,09,02,13,54,30.70
2017,09,02,13,55,30.80
2017,09,02,13,56,30.90
2017,09,02,13,57,31.00
2017,09,02,13,58,31.00
2017,09,02,13,59,31.10
2017,09,02,14,00,31.10
2017,09,02,14,01,31.10
2017,09,02,14,02,31.20
2017,09,02,14,03,31.20
2017,09,02,14,04,31.30
2017,09,02,14,05,31.30
2017,09,02,14,06,31.30
2017,09,02,14,07,31.30
2017,09,02,14,08,31.30
2017,09,02,14,09,31.30
2017,09,02,14,10,31.30
2017,09,02,14,11,31.30
2017,09,02,14,12,31.40
2017,09,02,14,13,31.50
2017,09,02,14,14,31.50
2017,09,02,14,15,31.60
2017,09,02,14,16,31.60
2017,09,02,14,17,31.60
2017,09,02,14,18,31.60
2017,09,02,14,19,31.70
2017,09,02,14,20,31.70
2017,09,02,14,21,31.80
2017,09,02,14,22,31.80
2017,09,02,14,23,31.80
2017,09,02,14,24,31.70
2017,09,02,14,25,31.70
2017,09,02,14,26,31.60
2017,09,02,14,27,31.60
2017,09,02,14,28,31.60
2017,09,02,14,29,31.60
2017,09,02,14,30,31.70
2017,09,02,14,31,31.80
2017,09,02,14,32,31.90
2017,09,02,14,33,31.90
2017,09,02,14,34,31.90
2017,09,02,14,35,31.90
2017,09,02,14,36,31.90
2017,09,02,14,37,31.90
2017,09,02,14,38,32.00
2017,09,02,14,39,32.00
2017,09,02,14,40,32.10
2017,09,02,14,41,32.10
2017,09,02,14,42,32.00
2017,09,02,14,43,32.00
2017,09,02,14,44,31.90
2017,09,02,14,45,31.90
2017,09,02,14,46,31.90
2017,09,02,14,47,32.00
2017,09,02,14,48,32.00
2017,09,02,14,49,31.90
2017,09,02,14,50,32.00
2017,09,02,14,51,32.00
2017,09,02,14,52,32.10
2017,09,02,14,53,32.00
2017,09,02,14,54,32.10
2017,09,02,14,55,32.10
2017,09,02,14,56,32.10
2017,09,02,14,57,32.10
2017,09,02,14,58,32.10
2017,09,02,14,59,32.10
2017,09,02,15,00,32.20
2017,09,02,15,01,32.30
2017,09,02,15,02,32.40
2017,09,02,15,03,32.50
2017,09,02,15,04,32.50
2017,09,02,15,05,32.40
2017,09,02,15,06,32.30
2017,09,02,15,07,32.30
2017,09,02,15,08,32.30
2017,09,02,15,09,32.30
2017,09,02,15,10,32.30
2017,09,02,15,11,32.30
2017,09,02,15,12,32.20
2017,09,02,15,13,32.20
2017,09,02,15,14,32.30
2017,09,02,15,15,32.30
2017,09,02,15,16,32.30
2017,09,02,15,17,32.30
2017,09,02,15,18,32.30
2017,09,02,15,19,32.30
2017,09,02,15,20,32.30
2017,09,02,15,21,32.30
2017,09,02,15,22,32.30
2017,09,02,15,23,32.30
2017,09,02,15,24,32.30
2017,09,02,15,25,32.30
2017,09,02,15,26,32.30
2017,09,02,15,27,32.30
2017,09,02,15,28,32.30
2017,09,02,15,29,32.30
2017,09,02,15,30,32.30
2017,09,02,15,31,32.30
2017,09,02,15,32,32.30
2017,09,02,15,33,32.30
2017,09,02,15,34,32.30
2017,09,02,15,35,32.30
2017,09,02,15,36,32.30
2017,09,02,15,37,32.30
2017,09,02,15,38,32.30
2017,09,02,15,39,32.30
2017,09,02,15,40,32.30
2017,09,02,15,41,32.30
2017,09,02,15,42,32.30
2017,09,02,15,43,32.30
2017,09,02,15,44,32.30
2017,09,02,15,45,32.30
2017,09,02,15,46,32.40
2017,09,02,15,47,32.50
2017,09,02,15,48,32.60
2017,09,02,15,49,32.60
2017,09,02,15,50,32.60
2017,09,02,15,51,32.60
2017,09,02,15,52,32.50
2017,09,02,15,53,32.50
2017,09,02,15,54,32.40
2017,09,02,15,55,32.40
2017,09,02,15,56,32.40
2017,09,02,15,57,32.40
2017,09,02,15,58,32.40
2017,09,02,15,59,32.50
2017,09,02,16,00,32.50
2017,09,02,16,01,32.60
2017,09,02,16,02,32.60
2017,09,02,16,03,32.60
2017,09,02,16,04,32.60
2017,09,02,16,05,32.60
2017,09,02,16,06,32.60
2017,09,02,16,07,32.50
2017,09,02,16,08,32.50
2017,09,02,16,09,32.50
2017,09,02,16,10,32.60
2017,09,02,16,11,32.70
2017,09,02,16,12,32.80
2017,09,02,16,13,32.80
2017,09,02,16,14,32.80
2017,09,02,16,15,32.90
2017,09,02,16,16,32.80
2017,09,02,16,17,32.80
2017,09,02,16,18,32.80
2017,09,02,16,19,32.70
2017,09,02,16,20,32.70
2017,09,02,16,21,32.70
2017,09,02,16,22,32.50
2017,09,02,16,23,32.40
2017,09,02,16,24,32.30
2017,09,02,16,25,32.30
2017,09,02,16,26,32.30
2017,09,02,16,27,32.30
2017,09,02,16,28,32.10
2017,09,02,16,29,31.90
2017,09,02,16,30,31.80
2017,09,02,16,31,31.70
2017,09,02,16,32,31.50
2017,09,02,16,33,31.40
2017,09,02,16,34,31.40
2017,09,02,16,35,31.40
2017,09,02,16,36,31.30
2017,09,02,16,37,31.30
2017,09,02,16,38,31.30
2017,09,02,16,39,31.40
2017,09,02,16,40,31.40
2017,09,02,16,41,31.50
2017,09,02,16,42,31.50
2017,09,02,16,43,31.50
2017,09,02,16,44,31.50
2017,09,02,16,45,31.50
2017,09,02,16,46,31.50
2017,09,02,16,47,31.50
2017,09,02,16,48,31.40
2017,09,02,16,49,31.40
2017,09,02,16,50,31.40
2017,09,02,16,51,31.40
2017,09,02,16,52,31.40
2017,09,02,16,53,31.40
2017,09,02,16,54,31.40
2017,09,02,16,55,31.40
2017,09,02,16,56,31.30
2017,09,02,16,57,31.30
2017,09,02,16,58,31.30
2017,09,02,16,59,31.20
2017,09,02,17,00,31.20
2017,09,02,17,01,31.10
2017,09,02,17,02,31.10
2017,09,02,17,03,31.10
2017,09,02,17,04,31.10
2017,09,02,17,05,31.10
2017,09,02,17,06,31.10
2017,09,02,17,07,31.00
2017,09,02,17,08,31.00
2017,09,02,17,09,30.90
2017,09,02,17,10,30.90
2017,09,02,17,11,30.80
2017,09,02,17,12,30.80
2017,09,02,17,13,30.80
2017,09,02,17,14,30.80
2017,09,02,17,15,30.80
2017,09,02,17,16,30.80
2017,09,02,17,17,30.80
2017,09,02,17,18,30.80
2017,09,02,17,19,30.80